| time (UTC) | temp F | wind direction | speed knots | gust knots | rain 1hr in | rain 24hr in | rain mn in | humidity % | barometer mb |
| 20260906113000 | 72 | 0 | 0.0 | 0.0 | 0.00 | 0.00 | 0.00 | 95 | 1012.9 |
| 20260906112500 | 72 | 0 | 0.0 | 0.0 | 0.00 | 0.00 | 0.00 | 94 | 1012.9 |
| 20260906112000 | 72 | 0 | 0.0 | 0.0 | 0.00 | 0.00 | 0.00 | 94 | 1012.5 |
| 20260906111500 | 72 | 0 | 0.0 | 0.0 | 0.00 | 0.00 | 0.00 | 93 | 1012.5 |
| 20260906111000 | 72 | 0 | 0.0 | 0.0 | 0.00 | 0.00 | 0.00 | 93 | 1012.5 |
| 20260906110500 | 72 | 0 | 0.0 | 0.0 | 0.00 | 0.00 | 0.00 | 92 | 1012.5 |
| 20260906110000 | 72 | 0 | 0.0 | 0.0 | 0.00 | 0.00 | 0.00 | 93 | 1012.2 |
| 20260906105500 | 72 | 0 | 0.0 | 0.0 | 0.00 | 0.00 | 0.00 | 93 | 1012.2 |
| 20260906105000 | 72 | 0 | 0.0 | 0.0 | 0.00 | 0.00 | 0.00 | 93 | 1012.2 |
| 20260906104500 | 72 | 0 | 0.0 | 0.0 | 0.00 | 0.00 | 0.00 | 92 | 1012.2 |
| 20260906104000 | 72 | 0 | 0.0 | 0.0 | 0.00 | 0.00 | 0.00 | 92 | 1012.2 |
| 20260906103500 | 72 | 0 | 0.0 | 0.0 | 0.00 | 0.00 | 0.00 | 92 | 1012.2 |
| 20260906103000 | 72 | 0 | 0.0 | 0.0 | 0.00 | 0.00 | 0.00 | 92 | 1012.2 |
| 20260906102500 | 72 | 0 | 0.0 | 0.0 | 0.00 | 0.00 | 0.00 | 92 | 1011.9 |
| 20260906102000 | 72 | 0 | 0.0 | 0.0 | 0.00 | 0.00 | 0.00 | 92 | 1012.2 |
| 20260906101500 | 72 | 0 | 0.0 | 0.0 | 0.00 | 0.00 | 0.00 | 92 | 1011.9 |
| 20260906101000 | 72 | 0 | 0.0 | 0.0 | 0.00 | 0.00 | 0.00 | 92 | 1011.9 |
| 20260906100500 | 72 | 0 | 0.0 | 0.0 | 0.00 | 0.00 | 0.00 | 93 | 1011.9 |
| 20260906100000 | 72 | 0 | 0.0 | 0.0 | 0.00 | 0.00 | 0.00 | 93 | 1011.9 |
| 20260906095500 | 72 | 0 | 0.0 | 0.0 | 0.00 | 0.00 | 0.00 | 92 | 1011.9 |
| 20260906095000 | 72 | 0 | 0.0 | 0.0 | 0.00 | 0.00 | 0.00 | 92 | 1011.9 |
| 20260906094500 | 72 | 0 | 0.0 | 0.0 | 0.00 | 0.00 | 0.00 | 92 | 1011.9 |
| 20260906094000 | 72 | 0 | 0.0 | 0.0 | 0.00 | 0.00 | 0.00 | 91 | 1011.9 |
| 20260906093500 | 72 | 0 | 0.0 | 0.0 | 0.00 | 0.00 | 0.00 | 91 | 1011.9 |
| 20260906093000 | 72 | 0 | 0.0 | 0.0 | 0.00 | 0.00 | 0.00 | 92 | 1011.9 |
| 20260906092500 | 72 | 0 | 0.0 | 0.0 | 0.00 | 0.00 | 0.00 | 91 | 1011.9 |
| 20260906092000 | 72 | 0 | 0.0 | 0.0 | 0.00 | 0.00 | 0.00 | 91 | 1011.9 |
| 20260906091500 | 72 | 0 | 0.0 | 0.0 | 0.00 | 0.00 | 0.00 | 91 | 1011.9 |
| 20260906091000 | 72 | 0 | 0.0 | 0.0 | 0.00 | 0.00 | 0.00 | 91 | 1011.9 |
| 20260906090500 | 73 | 0 | 0.0 | 0.0 | 0.00 | 0.00 | 0.00 | 91 | 1011.9 |
| 20260906090000 | 72 | 0 | 0.0 | 0.0 | 0.00 | 0.00 | 0.00 | 92 | 1011.9 |
| 20260906085500 | 72 | 0 | 0.0 | 0.0 | 0.00 | 0.00 | 0.00 | 91 | 1011.5 |
| 20260906085000 | 73 | 0 | 0.0 | 0.0 | 0.00 | 0.00 | 0.00 | 91 | 1011.9 |
| 20260906084500 | 73 | 0 | 0.0 | 0.0 | 0.00 | 0.00 | 0.00 | 91 | 1011.9 |
| 20260906084000 | 73 | 0 | 0.0 | 0.0 | 0.00 | 0.00 | 0.00 | 91 | 1011.5 |
| 20260906083500 | 73 | 0 | 0.0 | 0.0 | 0.00 | 0.00 | 0.00 | 91 | 1011.5 |
| 20260906083000 | 73 | 0 | 0.0 | 0.0 | 0.00 | 0.00 | 0.00 | 91 | 1011.5 |
| 20260906082500 | 73 | 0 | 0.0 | 0.0 | 0.00 | 0.00 | 0.00 | 91 | 1011.5 |
| 20260906082000 | 73 | 0 | 0.0 | 0.0 | 0.00 | 0.00 | 0.00 | 92 | 1011.5 |
| 20260906081500 | 73 | 0 | 0.0 | 0.0 | 0.00 | 0.00 | 0.00 | 91 | 1011.5 |
| 20260906081000 | 73 | 0 | 0.0 | 0.0 | 0.00 | 0.00 | 0.00 | 91 | 1011.5 |
| 20260906080500 | 73 | 0 | 0.0 | 0.0 | 0.00 | 0.00 | 0.00 | 91 | 1011.5 |
| 20260906080000 | 73 | 0 | 0.0 | 0.0 | 0.00 | 0.00 | 0.00 | 91 | 1011.2 |
| 20260906075500 | 73 | 0 | 0.0 | 0.0 | 0.00 | 0.00 | 0.00 | 91 | 1011.5 |
| 20260906075000 | 73 | 0 | 0.0 | 0.0 | 0.00 | 0.00 | 0.00 | 92 | 1011.5 |
| 20260906074500 | 73 | 0 | 0.0 | 0.9 | 0.00 | 0.00 | 0.00 | 92 | 1011.2 |
| 20260906074000 | 73 | 0 | 0.0 | 1.7 | 0.00 | 0.00 | 0.00 | 93 | 1011.2 |
| 20260906073500 | 73 | 292 | 0.9 | 2.6 | 0.00 | 0.00 | 0.00 | 93 | 1011.2 |
| 20260906073000 | 73 | 292 | 0.9 | 3.5 | 0.00 | 0.00 | 0.00 | 92 | 1011.2 |
| 20260906072500 | 73 | 292 | 1.7 | 3.5 | 0.00 | 0.00 | 0.00 | 92 | 1011.5 |
| 20260906072000 | 73 | 292 | 1.7 | 3.5 | 0.00 | 0.00 | 0.00 | 92 | 1011.5 |
| 20260906071500 | 73 | 292 | 2.6 | 3.5 | 0.00 | 0.00 | 0.00 | 92 | 1011.2 |
| 20260906071000 | 73 | 22 | 2.6 | 5.2 | 0.00 | 0.00 | 0.00 | 92 | 1011.5 |
| 20260906070500 | 73 | 292 | 1.7 | 5.2 | 0.00 | 0.00 | 0.00 | 92 | 1011.5 |
| 20260906070000 | 73 | 292 | 2.6 | 5.2 | 0.00 | 0.00 | 0.00 | 92 | 1011.5 |
| 20260906065500 | 73 | 22 | 3.5 | 6.1 | 0.00 | 0.00 | 0.00 | 92 | 1011.5 |
| 20260906065000 | 73 | 292 | 3.5 | 6.1 | 0.00 | 0.00 | 0.00 | 91 | 1011.5 |
| 20260906064500 | 73 | 292 | 2.6 | 5.2 | 0.00 | 0.00 | 0.00 | 90 | 1011.5 |
| 20260906064000 | 74 | 22 | 2.6 | 2.6 | 0.00 | 0.00 | 0.00 | 90 | 1011.5 |
| 20260906063500 | 74 | 292 | 1.7 | 2.6 | 0.00 | 0.00 | 0.00 | 89 | 1011.5 |
| 20260906063000 | 74 | 247 | 0.9 | 1.7 | 0.00 | 0.00 | 0.00 | 90 | 1011.5 |
| 20260906062500 | 74 | 247 | 0.9 | 2.6 | 0.00 | 0.00 | 0.00 | 89 | 1011.5 |
| 20260906062000 | 74 | 0 | 0.0 | 2.6 | 0.00 | 0.00 | 0.00 | 89 | 1011.5 |
| 20260906061500 | 74 | 22 | 1.7 | 2.6 | 0.00 | 0.00 | 0.00 | 88 | 1011.5 |
| 20260906061000 | 74 | 0 | 0.0 | 0.0 | 0.00 | 0.00 | 0.00 | 88 | 1011.5 |
| 20260906060500 | 74 | 0 | 0.0 | 0.0 | 0.00 | 0.00 | 0.00 | 88 | 1011.5 |
| 20260906060000 | 74 | 0 | 0.0 | 1.7 | 0.00 | 0.00 | 0.00 | 88 | 1011.5 |
| 20260906055500 | 74 | 0 | 0.0 | 2.6 | 0.00 | 0.00 | 0.00 | 88 | 1011.5 |
| 20260906055000 | 75 | 292 | 0.9 | 2.6 | 0.00 | 0.00 | 0.00 | 88 | 1011.5 |
| 20260906054500 | 75 | 67 | 2.6 | 2.6 | 0.00 | 0.00 | 0.00 | 88 | 1011.5 |
| 20260906054000 | 75 | 0 | 0.0 | 0.0 | 0.00 | 0.00 | 0.00 | 87 | 1011.9 |
| 20260906053500 | 75 | 0 | 0.0 | 0.9 | 0.00 | 0.00 | 0.00 | 87 | 1011.5 |
| 20260906053000 | 75 | 0 | 0.0 | 2.6 | 0.00 | 0.00 | 0.00 | 87 | 1011.5 |
| 20260906052500 | 75 | 202 | 0.9 | 2.6 | 0.00 | 0.00 | 0.00 | 87 | 1011.5 |
| 20260906052000 | 75 | 0 | 0.0 | 1.7 | 0.00 | 0.00 | 0.00 | 88 | 1011.5 |
| 20260906051500 | 75 | 0 | 0.0 | 2.6 | 0.00 | 0.00 | 0.00 | 88 | 1011.5 |
| 20260906051000 | 75 | 180 | 1.7 | 2.6 | 0.00 | 0.00 | 0.00 | 88 | 1011.5 |
| 20260906050500 | 75 | 180 | 0.9 | 2.6 | 0.00 | 0.00 | 0.00 | 87 | 1011.9 |
| 20260906050000 | 75 | 180 | 0.9 | 3.5 | 0.00 | 0.00 | 0.00 | 87 | 1011.5 |
| 20260906045500 | 75 | 180 | 1.7 | 4.3 | 0.00 | 0.00 | 0.00 | 87 | 1011.5 |
| 20260906045000 | 75 | 180 | 1.7 | 4.3 | 0.00 | 0.00 | 0.00 | 87 | 1011.9 |
| 20260906044500 | 75 | 180 | 1.7 | 4.3 | 0.00 | 0.00 | 0.00 | 87 | 1011.9 |
| 20260906044000 | 75 | 180 | 1.7 | 4.3 | 0.00 | 0.00 | 0.00 | 87 | 1011.9 |
| 20260906043500 | 75 | 202 | 3.5 | 5.2 | 0.00 | 0.00 | 0.00 | 87 | 1011.9 |
| 20260906043000 | 75 | 180 | 2.6 | 5.2 | 0.00 | 0.00 | 0.00 | 87 | 1011.9 |
| 20260906042500 | 75 | 202 | 4.3 | 5.2 | 0.00 | 0.00 | 0.00 | 87 | 1011.9 |
| 20260906042000 | 75 | 202 | 3.5 | 7.8 | 0.00 | 0.00 | 0.00 | 87 | 1011.9 |
| 20260906041500 | 75 | 225 | 1.7 | 7.8 | 0.00 | 0.00 | 0.00 | 87 | 1011.9 |
| 20260906041000 | 75 | 202 | 2.6 | 7.8 | 0.00 | 0.00 | 0.00 | 87 | 1011.9 |
| 20260906040500 | 75 | 180 | 4.3 | 9.6 | 0.00 | 0.00 | 0.00 | 88 | 1011.9 |
| 20260906040000 | 75 | 180 | 2.6 | 9.6 | 0.00 | 0.00 | 0.00 | 88 | 1011.9 |
| 20260906035500 | 75 | 202 | 2.6 | 7.8 | 0.00 | 0.00 | 0.00 | 87 | 1011.9 |
| 20260906035000 | 75 | 202 | 5.2 | 7.8 | 0.00 | 0.00 | 0.00 | 87 | 1011.9 |
| 20260906034500 | 75 | 202 | 2.6 | 5.2 | 0.00 | 0.00 | 0.00 | 86 | 1011.9 |
| 20260906034000 | 76 | 202 | 5.2 | 5.2 | 0.00 | 0.00 | 0.00 | 86 | 1011.5 |
| 20260906033500 | 76 | 225 | 3.5 | 3.5 | 0.00 | 0.00 | 0.00 | 86 | 1011.5 |
| 20260906033000 | 76 | 180 | 1.7 | 7.0 | 0.00 | 0.00 | 0.00 | 86 | 1011.5 |
| 20260906032500 | 76 | 202 | 3.5 | 7.0 | 0.00 | 0.00 | 0.00 | 86 | 1011.5 |
| 20260906032000 | 76 | 202 | 3.5 | 5.2 | 0.00 | 0.00 | 0.00 | 86 | 1011.5 |
| 20260906031500 | 76 | 202 | 1.7 | 1.7 | 0.00 | 0.00 | 0.00 | 85 | 1011.5 |
| 20260906031000 | 76 | 0 | 0.0 | 1.7 | 0.00 | 0.00 | 0.00 | 85 | 1011.5 |
| 20260906030500 | 76 | 0 | 0.0 | 1.7 | 0.00 | 0.00 | 0.00 | 86 | 1011.5 |
| 20260906030000 | 76 | 0 | 0.0 | 1.7 | 0.00 | 0.00 | 0.00 | 86 | 1011.5 |
| 20260906025500 | 76 | 157 | 1.7 | 1.7 | 0.00 | 0.00 | 0.00 | 85 | 1011.5 |
| 20260906025000 | 76 | 157 | 0.9 | 2.6 | 0.00 | 0.00 | 0.00 | 86 | 1011.2 |
| 20260906024500 | 76 | 0 | 0.0 | 2.6 | 0.00 | 0.00 | 0.00 | 85 | 1011.2 |
| 20260906024000 | 76 | 0 | 0.0 | 1.7 | 0.00 | 0.00 | 0.00 | 85 | 1011.2 |
| 20260906023500 | 76 | 0 | 0.0 | 1.7 | 0.00 | 0.00 | 0.00 | 85 | 1011.5 |
| 20260906023000 | 76 | 157 | 1.7 | 3.5 | 0.00 | 0.00 | 0.00 | 86 | 1011.2 |
| 20260906022500 | 76 | 202 | 1.7 | 4.3 | 0.00 | 0.00 | 0.00 | 86 | 1011.2 |
| 20260906022000 | 77 | 157 | 3.5 | 4.3 | 0.00 | 0.00 | 0.00 | 86 | 1011.5 |
| 20260906021500 | 77 | 157 | 1.7 | 2.6 | 0.00 | 0.00 | 0.00 | 85 | 1011.2 |
| 20260906021000 | 77 | 180 | 1.7 | 3.5 | 0.00 | 0.00 | 0.00 | 85 | 1011.2 |
| 20260906020500 | 77 | 112 | 2.6 | 4.3 | 0.00 | 0.00 | 0.00 | 86 | 1011.5 |
| 20260906020000 | 77 | 157 | 2.6 | 4.3 | 0.00 | 0.00 | 0.00 | 85 | 1011.5 |
| 20260906015500 | 78 | 157 | 1.7 | 3.5 | 0.00 | 0.00 | 0.00 | 84 | 1011.5 |
| 20260906015000 | 78 | 0 | 0.0 | 4.3 | 0.00 | 0.00 | 0.00 | 84 | 1011.2 |
| 20260906014500 | 78 | 157 | 0.9 | 4.3 | 0.00 | 0.00 | 0.00 | 84 | 1011.2 |
| 20260906014000 | 78 | 180 | 2.6 | 9.6 | 0.00 | 0.00 | 0.00 | 83 | 1011.2 |
| 20260906013500 | 78 | 180 | 4.3 | 11.3 | 0.00 | 0.00 | 0.00 | 82 | 1011.2 |
| 20260906013000 | 78 | 225 | 7.0 | 11.3 | 0.00 | 0.00 | 0.00 | 82 | 1010.8 |
| 20260906012500 | 79 | 202 | 3.5 | 8.7 | 0.00 | 0.00 | 0.00 | 81 | 1010.8 |
| 20260906012000 | 79 | 270 | 3.5 | 15.6 | 0.00 | 0.00 | 0.00 | 78 | 1010.8 |
| 20260906011500 | 80 | 135 | 4.3 | 15.6 | 0.00 | 0.00 | 0.00 | 77 | 1010.8 |
| 20260906011000 | 82 | 180 | 6.1 | 14.8 | 0.00 | 0.00 | 0.00 | 79 | 1011.2 |
| 20260906010500 | 83 | 135 | 3.5 | 14.8 | 0.00 | 0.00 | 0.00 | 73 | 1010.8 |
| 20260906010000 | 83 | 67 | 2.6 | 8.7 | 0.00 | 0.00 | 0.00 | 69 | 1010.8 |
| 20260906005500 | 84 | 202 | 2.6 | 8.7 | 0.00 | 0.00 | 0.00 | 73 | 1010.5 |
| 20260906005000 | 84 | 225 | 2.6 | 3.5 | 0.00 | 0.00 | 0.00 | 75 | 1010.5 |
| 20260906004500 | 84 | 225 | 2.6 | 3.5 | 0.00 | 0.00 | 0.00 | 74 | 1010.2 |
| 20260906004000 | 84 | 180 | 2.6 | 4.3 | 0.00 | 0.00 | 0.00 | 73 | 1009.8 |
| 20260906003500 | 84 | 0 | 0.0 | 5.2 | 0.00 | 0.00 | 0.00 | 73 | 1010.2 |
| 20260906003000 | 85 | 225 | 3.5 | 5.2 | 0.00 | 0.00 | 0.00 | 73 | 1010.2 |
| 20260906002500 | 86 | 180 | 1.7 | 3.5 | 0.00 | 0.00 | 0.00 | 71 | 1010.2 |
| 20260906002000 | 86 | 0 | 0.0 | 0.0 | 0.00 | 0.00 | 0.00 | 67 | 1010.2 |
| 20260906001500 | 88 | 0 | 0.0 | 0.0 | 0.00 | 0.00 | 0.00 | 65 | 1010.2 |
| 20260906001000 | 89 | 0 | 0.0 | 0.0 | 0.00 | 0.00 | 0.00 | 64 | 1010.2 |
| 20260906000500 | 89 | 0 | 0.0 | 0.0 | 0.00 | 0.00 | 0.00 | 65 | 1010.5 |
| 20260906000000 | 89 | 0 | 0.0 | 1.7 | 0.00 | 0.00 | 0.00 | 65 | 1010.5 |
| 20260905235500 | 89 | 0 | 0.0 | 2.6 | 0.00 | 0.00 | 0.00 | 64 | 1010.5 |
| 20260905235000 | 89 | 22 | 2.6 | 2.6 | 0.00 | 0.00 | 0.00 | 63 | 1010.8 |
| 20260905234500 | 89 | 67 | 1.7 | 2.6 | 0.00 | 0.00 | 0.00 | 62 | 1010.8 |
| 20260905234000 | 89 | 0 | 0.0 | 0.0 | 0.00 | 0.00 | 0.00 | 62 | 1010.8 |
| 20260905233500 | 90 | 0 | 0.0 | 0.0 | 0.00 | 0.00 | 0.00 | 62 | 1010.5 |
| 20260905233000 | 90 | 0 | 0.0 | 0.0 | 0.00 | 0.00 | 0.00 | 61 | 1010.5 |
| 20260905232500 | 90 | 0 | 0.0 | 0.0 | 0.00 | 0.00 | 0.00 | 60 | 1010.5 |
| 20260905232000 | 91 | 0 | 0.0 | 0.0 | 0.00 | 0.00 | 0.00 | 60 | 1010.5 |
| 20260905231500 | 91 | 0 | 0.0 | 0.0 | 0.00 | 0.00 | 0.00 | 60 | 1010.5 |
| 20260905231000 | 91 | 0 | 0.0 | 0.0 | 0.00 | 0.00 | 0.00 | 58 | 1010.2 |
| 20260905230500 | 92 | 0 | 0.0 | 0.0 | 0.00 | 0.00 | 0.00 | 57 | 1010.2 |
| 20260905230000 | 91 | 0 | 0.0 | 0.0 | 0.00 | 0.00 | 0.00 | 58 | 1010.2 |
| 20260905225500 | 91 | 0 | 0.0 | 1.7 | 0.00 | 0.00 | 0.00 | 56 | 1010.2 |
| 20260905225000 | 92 | 0 | 0.0 | 2.6 | 0.00 | 0.00 | 0.00 | 54 | 1010.2 |
| 20260905224500 | 92 | 0 | 0.0 | 4.3 | 0.00 | 0.00 | 0.00 | 53 | 1009.8 |
| 20260905224000 | 92 | 22 | 4.3 | 4.3 | 0.00 | 0.00 | 0.00 | 53 | 1010.2 |
| 20260905223500 | 92 | 157 | 0.9 | 4.3 | 0.00 | 0.00 | 0.00 | 54 | 1009.8 |
| 20260905223000 | 92 | 67 | 1.7 | 5.2 | 0.00 | 0.00 | 0.00 | 52 | 1010.2 |
| 20260905222500 | 92 | 22 | 2.6 | 6.1 | 0.00 | 0.00 | 0.00 | 52 | 1010.2 |
| 20260905222000 | 92 | 22 | 4.3 | 6.1 | 0.00 | 0.00 | 0.00 | 52 | 1010.2 |
| 20260905221500 | 92 | 0 | 0.0 | 0.0 | 0.00 | 0.00 | 0.00 | 56 | 1010.2 |
| 20260905221000 | 92 | 0 | 0.0 | 0.0 | 0.00 | 0.00 | 0.00 | 54 | 1010.2 |
| 20260905220500 | 93 | 0 | 0.0 | 0.0 | 0.00 | 0.00 | 0.00 | 55 | 1010.2 |
| 20260905220000 | 93 | 0 | 0.0 | 1.7 | 0.00 | 0.00 | 0.00 | 54 | 1010.2 |
| 20260905215500 | 93 | 0 | 0.0 | 4.3 | 0.00 | 0.00 | 0.00 | 51 | 1010.2 |
| 20260905215000 | 93 | 0 | 0.0 | 5.2 | 0.00 | 0.00 | 0.00 | 49 | 1010.2 |
| 20260905214500 | 94 | 292 | 5.2 | 5.2 | 0.00 | 0.00 | 0.00 | 48 | 1010.2 |
| 20260905214000 | 94 | 0 | 0.0 | 5.2 | 0.00 | 0.00 | 0.00 | 49 | 1010.5 |
| 20260905213500 | 93 | 67 | 3.5 | 6.1 | 0.00 | 0.00 | 0.00 | 48 | 1010.5 |
| 20260905213000 | 93 | 292 | 4.3 | 6.1 | 0.00 | 0.00 | 0.00 | 48 | 1010.5 |
| 20260905212500 | 93 | 225 | 0.9 | 6.1 | 0.00 | 0.00 | 0.00 | 48 | 1010.5 |
| 20260905212000 | 94 | 0 | 0.0 | 6.1 | 0.00 | 0.00 | 0.00 | 48 | 1010.5 |
| 20260905211500 | 94 | 292 | 1.7 | 4.3 | 0.00 | 0.00 | 0.00 | 47 | 1010.5 |
| 20260905211000 | 94 | 292 | 3.5 | 5.2 | 0.00 | 0.00 | 0.00 | 48 | 1010.5 |
| 20260905210500 | 94 | 292 | 0.9 | 6.1 | 0.00 | 0.00 | 0.00 | 46 | 1010.8 |
| 20260905210000 | 94 | 292 | 5.2 | 6.1 | 0.00 | 0.00 | 0.00 | 47 | 1010.8 |
| 20260905205500 | 94 | 292 | 4.3 | 6.1 | 0.00 | 0.00 | 0.00 | 46 | 1010.8 |
| 20260905205000 | 94 | 292 | 2.6 | 5.2 | 0.00 | 0.00 | 0.00 | 47 | 1010.8 |
| 20260905204500 | 93 | 292 | 5.2 | 7.0 | 0.00 | 0.00 | 0.00 | 48 | 1010.8 |
| 20260905204000 | 94 | 22 | 0.9 | 7.0 | 0.00 | 0.00 | 0.00 | 48 | 1010.8 |
| 20260905203500 | 94 | 292 | 1.7 | 6.1 | 0.00 | 0.00 | 0.00 | 49 | 1010.8 |
| 20260905203000 | 93 | 0 | 0.0 | 7.8 | 0.00 | 0.00 | 0.00 | 48 | 1011.2 |
| 20260905202500 | 94 | 22 | 3.5 | 7.8 | 0.00 | 0.00 | 0.00 | 48 | 1011.2 |
| 20260905202000 | 94 | 67 | 2.6 | 7.8 | 0.00 | 0.00 | 0.00 | 47 | 1011.2 |
| 20260905201500 | 94 | 22 | 7.8 | 7.8 | 0.00 | 0.00 | 0.00 | 47 | 1011.2 |
| 20260905201000 | 94 | 225 | 7.0 | 7.8 | 0.00 | 0.00 | 0.00 | 48 | 1011.2 |
| 20260905200500 | 94 | 180 | 1.7 | 8.7 | 0.00 | 0.00 | 0.00 | 50 | 1011.5 |
| 20260905200000 | 95 | 180 | 2.6 | 8.7 | 0.00 | 0.00 | 0.00 | 50 | 1011.5 |
| 20260905195500 | 95 | 292 | 2.6 | 6.1 | 0.00 | 0.00 | 0.00 | 50 | 1011.5 |
| 20260905195000 | 94 | 225 | 1.7 | 9.6 | 0.00 | 0.00 | 0.00 | 50 | 1011.5 |
| 20260905194500 | 95 | 67 | 3.5 | 9.6 | 0.00 | 0.00 | 0.00 | 48 | 1011.5 |
| 20260905194000 | 96 | 67 | 1.7 | 7.8 | 0.00 | 0.00 | 0.00 | 48 | 1011.9 |
| 20260905193500 | 96 | 270 | 2.6 | 7.8 | 0.00 | 0.00 | 0.00 | 47 | 1011.9 |
| 20260905193000 | 96 | 225 | 0.9 | 6.1 | 0.00 | 0.00 | 0.00 | 48 | 1011.9 |
| 20260905192500 | 96 | 247 | 2.6 | 5.2 | 0.00 | 0.00 | 0.00 | 48 | 1011.9 |
| 20260905192000 | 95 | 225 | 1.7 | 7.8 | 0.00 | 0.00 | 0.00 | 48 | 1011.9 |
| 20260905191500 | 95 | 247 | 0.9 | 7.8 | 0.00 | 0.00 | 0.00 | 48 | 1012.2 |
| 20260905191000 | 95 | 180 | 1.7 | 6.1 | 0.00 | 0.00 | 0.00 | 49 | 1012.2 |
| 20260905190500 | 95 | 112 | 0.9 | 6.1 | 0.00 | 0.00 | 0.00 | 49 | 1012.2 |
| 20260905190000 | 94 | 292 | 3.5 | 7.0 | 0.00 | 0.00 | 0.00 | 49 | 1012.2 |
| 20260905185500 | 95 | 22 | 6.1 | 7.0 | 0.00 | 0.00 | 0.00 | 48 | 1012.5 |
| 20260905185000 | 96 | 22 | 5.2 | 7.0 | 0.00 | 0.00 | 0.00 | 46 | 1012.5 |
| 20260905184500 | 97 | 22 | 4.3 | 6.1 | 0.00 | 0.00 | 0.00 | 47 | 1012.5 |
| 20260905184000 | 97 | 180 | 3.5 | 7.0 | 0.00 | 0.00 | 0.00 | 47 | 1012.9 |
| 20260905183500 | 97 | 247 | 1.7 | 7.0 | 0.00 | 0.00 | 0.00 | 48 | 1012.9 |
| 20260905183000 | 97 | 0 | 0.0 | 6.1 | 0.00 | 0.00 | 0.00 | 48 | 1012.9 |
| 20260905182500 | 96 | 247 | 2.6 | 6.1 | 0.00 | 0.00 | 0.00 | 50 | 1012.9 |
| 20260905182000 | 96 | 247 | 1.7 | 6.1 | 0.00 | 0.00 | 0.00 | 49 | 1012.9 |
| 20260905181500 | 96 | 157 | 0.9 | 7.0 | 0.00 | 0.00 | 0.00 | 51 | 1012.9 |
| 20260905181000 | 95 | 22 | 0.9 | 7.0 | 0.00 | 0.00 | 0.00 | 51 | 1013.2 |
| 20260905180500 | 96 | 67 | 1.7 | 6.1 | 0.00 | 0.00 | 0.00 | 49 | 1013.2 |
| 20260905180000 | 96 | 180 | 0.9 | 9.6 | 0.00 | 0.00 | 0.00 | 50 | 1013.2 |
| 20260905175500 | 96 | 225 | 2.6 | 9.6 | 0.00 | 0.00 | 0.00 | 51 | 1013.2 |
| 20260905175000 | 95 | 157 | 0.9 | 7.0 | 0.00 | 0.00 | 0.00 | 50 | 1013.2 |
| 20260905174500 | 94 | 292 | 3.5 | 7.0 | 0.00 | 0.00 | 0.00 | 50 | 1013.2 |
| 20260905174000 | 95 | 112 | 4.3 | 6.1 | 0.00 | 0.00 | 0.00 | 50 | 1013.5 |
| 20260905173500 | 95 | 112 | 3.5 | 5.2 | 0.00 | 0.00 | 0.00 | 50 | 1013.5 |
| 20260905173000 | 95 | 180 | 2.6 | 7.8 | 0.00 | 0.00 | 0.00 | 51 | 1013.5 |
| 20260905172500 | 94 | 270 | 2.6 | 7.8 | 0.00 | 0.00 | 0.00 | 52 | 1013.5 |
| 20260905172000 | 93 | 0 | 0.0 | 5.2 | 0.00 | 0.00 | 0.00 | 52 | 1013.5 |
| 20260905171500 | 93 | 112 | 2.6 | 5.2 | 0.00 | 0.00 | 0.00 | 52 | 1013.5 |
| 20260905171000 | 94 | 112 | 1.7 | 4.3 | 0.00 | 0.00 | 0.00 | 53 | 1013.9 |
| 20260905170500 | 94 | 180 | 3.5 | 6.1 | 0.00 | 0.00 | 0.00 | 56 | 1013.5 |
| 20260905170000 | 93 | 225 | 1.7 | 6.1 | 0.00 | 0.00 | 0.00 | 55 | 1013.9 |
| 20260905165500 | 93 | 225 | 3.5 | 6.1 | 0.00 | 0.00 | 0.00 | 56 | 1013.9 |
| 20260905165000 | 92 | 180 | 2.6 | 6.1 | 0.00 | 0.00 | 0.00 | 56 | 1014.2 |
| 20260905164500 | 92 | 180 | 3.5 | 6.1 | 0.00 | 0.00 | 0.00 | 60 | 1014.2 |
| 20260905164000 | 91 | 180 | 1.7 | 6.1 | 0.00 | 0.00 | 0.00 | 56 | 1014.2 |
| 20260905163500 | 91 | 112 | 3.5 | 6.1 | 0.00 | 0.00 | 0.00 | 56 | 1014.2 |
| 20260905163000 | 91 | 0 | 0.0 | 6.1 | 0.00 | 0.00 | 0.00 | 58 | 1014.2 |
| 20260905162500 | 90 | 180 | 2.6 | 6.1 | 0.00 | 0.00 | 0.00 | 60 | 1014.2 |
| 20260905162000 | 90 | 112 | 2.6 | 5.2 | 0.00 | 0.00 | 0.00 | 59 | 1014.2 |
| 20260905161500 | 90 | 157 | 1.7 | 5.2 | 0.00 | 0.00 | 0.00 | 61 | 1014.2 |
| 20260905161000 | 89 | 292 | 2.6 | 6.1 | 0.00 | 0.00 | 0.00 | 61 | 1014.2 |
| 20260905160500 | 89 | 22 | 2.6 | 6.1 | 0.00 | 0.00 | 0.00 | 64 | 1014.2 |
| 20260905160000 | 88 | 225 | 1.7 | 7.0 | 0.00 | 0.00 | 0.00 | 65 | 1014.2 |
| 20260905155500 | 87 | 67 | 4.3 | 7.0 | 0.00 | 0.00 | 0.00 | 63 | 1014.2 |
| 20260905155000 | 87 | 112 | 2.6 | 6.1 | 0.00 | 0.00 | 0.00 | 64 | 1014.2 |
| 20260905154500 | 87 | 112 | 0.9 | 7.0 | 0.00 | 0.00 | 0.00 | 64 | 1014.2 |
| 20260905154000 | 87 | 157 | 2.6 | 7.0 | 0.00 | 0.00 | 0.00 | 64 | 1014.2 |
| 20260905153500 | 87 | 112 | 1.7 | 5.2 | 0.00 | 0.00 | 0.00 | 66 | 1014.2 |
| 20260905153000 | 86 | 225 | 1.7 | 4.3 | 0.00 | 0.00 | 0.00 | 70 | 1014.6 |
| 20260905152500 | 86 | 157 | 2.6 | 4.3 | 0.00 | 0.00 | 0.00 | 70 | 1014.2 |
| 20260905152000 | 85 | 112 | 2.6 | 7.0 | 0.00 | 0.00 | 0.00 | 72 | 1014.2 |
| 20260905151500 | 84 | 112 | 2.6 | 7.0 | 0.00 | 0.00 | 0.00 | 73 | 1014.2 |
| 20260905151000 | 84 | 67 | 3.5 | 7.8 | 0.00 | 0.00 | 0.00 | 74 | 1014.6 |
| 20260905150500 | 83 | 67 | 1.7 | 7.8 | 0.00 | 0.00 | 0.00 | 75 | 1014.2 |
| 20260905150000 | 84 | 112 | 5.2 | 6.1 | 0.00 | 0.00 | 0.00 | 74 | 1014.2 |
| 20260905145500 | 83 | 112 | 5.2 | 6.1 | 0.00 | 0.00 | 0.00 | 76 | 1014.2 |
| 20260905145000 | 82 | 112 | 3.5 | 7.8 | 0.00 | 0.00 | 0.00 | 77 | 1014.2 |
| 20260905144500 | 82 | 112 | 2.6 | 7.8 | 0.00 | 0.00 | 0.00 | 77 | 1014.2 |
| 20260905144000 | 81 | 247 | 5.2 | 7.0 | 0.00 | 0.00 | 0.00 | 79 | 1014.6 |
| 20260905143500 | 81 | 157 | 2.6 | 5.2 | 0.00 | 0.00 | 0.00 | 80 | 1014.2 |
| 20260905143000 | 81 | 67 | 5.2 | 8.7 | 0.00 | 0.00 | 0.00 | 80 | 1014.6 |
| 20260905142500 | 80 | 292 | 2.6 | 8.7 | 0.00 | 0.00 | 0.00 | 79 | 1014.2 |
| 20260905142000 | 80 | 22 | 4.3 | 6.1 | 0.00 | 0.00 | 0.00 | 79 | 1014.2 |
| 20260905141500 | 80 | 112 | 3.5 | 4.3 | 0.00 | 0.00 | 0.00 | 78 | 1014.2 |
| 20260905141000 | 80 | 112 | 1.7 | 4.3 | 0.00 | 0.00 | 0.00 | 79 | 1014.2 |
| 20260905140500 | 80 | 112 | 2.6 | 4.3 | 0.00 | 0.00 | 0.00 | 79 | 1014.2 |
| 20260905140000 | 81 | 22 | 4.3 | 4.3 | 0.00 | 0.00 | 0.00 | 76 | 1014.2 |
| 20260905135500 | 80 | 22 | 4.3 | 6.1 | 0.00 | 0.00 | 0.00 | 76 | 1014.2 |
| 20260905135000 | 80 | 67 | 1.7 | 8.7 | 0.00 | 0.00 | 0.00 | 76 | 1014.2 |
| 20260905134500 | 80 | 112 | 3.5 | 8.7 | 0.00 | 0.00 | 0.00 | 77 | 1014.2 |
| 20260905134000 | 80 | 22 | 2.6 | 6.1 | 0.00 | 0.00 | 0.00 | 78 | 1014.2 |
| 20260905133500 | 79 | 337 | 3.5 | 7.0 | 0.00 | 0.00 | 0.00 | 79 | 1014.2 |
| 20260905133000 | 79 | 67 | 2.6 | 7.0 | 0.00 | 0.00 | 0.00 | 79 | 1014.2 |
| 20260905132500 | 79 | 22 | 1.7 | 6.1 | 0.00 | 0.00 | 0.00 | 81 | 1014.2 |
| 20260905132000 | 79 | 22 | 2.6 | 6.1 | 0.00 | 0.00 | 0.00 | 80 | 1014.2 |
| 20260905131500 | 78 | 22 | 2.6 | 4.3 | 0.00 | 0.00 | 0.00 | 82 | 1014.2 |
| 20260905131000 | 78 | 157 | 1.7 | 4.3 | 0.00 | 0.00 | 0.00 | 83 | 1014.2 |
| 20260905130500 | 78 | 67 | 0.9 | 2.6 | 0.00 | 0.00 | 0.00 | 83 | 1014.2 |
| 20260905130000 | 79 | 292 | 1.7 | 3.5 | 0.00 | 0.00 | 0.00 | 81 | 1014.2 |
| 20260905125500 | 79 | 22 | 1.7 | 3.5 | 0.00 | 0.00 | 0.00 | 81 | 1014.2 |
| 20260905125000 | 79 | 22 | 2.6 | 3.5 | 0.00 | 0.00 | 0.00 | 81 | 1014.2 |
| 20260905124500 | 79 | 67 | 1.7 | 4.3 | 0.00 | 0.00 | 0.00 | 81 | 1014.2 |
| 20260905124000 | 79 | 22 | 3.5 | 4.3 | 0.00 | 0.00 | 0.00 | 81 | 1014.2 |
| 20260905123500 | 78 | 292 | 2.6 | 5.2 | 0.00 | 0.00 | 0.00 | 81 | 1014.2 |
| 20260905123000 | 78 | 22 | 3.5 | 5.2 | 0.00 | 0.00 | 0.00 | 82 | 1014.2 |
| 20260905122500 | 78 | 22 | 3.5 | 5.2 | 0.00 | 0.00 | 0.00 | 83 | 1013.9 |
| 20260905122000 | 78 | 22 | 4.3 | 5.2 | 0.00 | 0.00 | 0.00 | 84 | 1013.9 |
| 20260905121500 | 77 | 22 | 3.5 | 3.5 | 0.00 | 0.00 | 0.00 | 85 | 1014.2 |
| 20260905121000 | 77 | 22 | 2.6 | 3.5 | 0.00 | 0.00 | 0.00 | 85 | 1013.9 |
| 20260905120500 | 77 | 292 | 1.7 | 3.5 | 0.00 | 0.00 | 0.00 | 85 | 1013.9 |
| 20260905120000 | 77 | 292 | 2.6 | 2.6 | 0.00 | 0.00 | 0.00 | 85 | 1013.9 |
| 20260905115500 | 77 | 0 | 0.0 | 1.7 | 0.00 | 0.00 | 0.00 | 85 | 1013.9 |
| 20260905115000 | 78 | 0 | 0.0 | 1.7 | 0.00 | 0.00 | 0.00 | 82 | 1013.9 |
| 20260905113500 | 78 | 67 | 1.7 | 1.7 | 0.00 | 0.00 | 0.00 | 82 | 1013.5 |